Zurück zum Katalog

COSMOS 2251 DEB

AktivLEO
NORAD 47074·DEBRIS·🇷🇺 Russia

Gestartet Jun 16, 1993 von Plesetsk Cosmodrome

Loading…

Nächste Überflüge (nächste 24 Stunden)

TLE

AktuellSource: Space-Track

Epoche: Sep 14, 2026, 11:51 UTC

1 47074U 93036BYE 26257.49385039  .00002857  00000-0  85308-3 0  9995
2 47074  74.0916 163.1792 0138835 121.4288  51.8995 14.37961353 66432

Verfolge COSMOS 2251 DEB in Echtzeit mit AllMySat

Download on the App Store